Location: ?nandapuram
(16.5396°N, 81.1430°E)
Time: 11:51:51
(UTC+00:00)

OAO 2 Rocket - Pass Details

Date: 14 April 2026
Orbit: 668 x 733 km, 35.0° (Epoch: 21 May)

Event Time Altitude Azimuth Distance (km) Brightness Sun altitude
Rises 13:10:47 0° 220° (SW) 3,118 7.1 -5.6°
Reaches altitude 10° 13:13:21 10° 212° (SSW) 2,189 6.2 -6.2°
Maximum altitude 13:18:09 40° 144° (SE) 1,042 3.9 -7.3°
Drops below altitude 10° 13:22:51 10° 75° (ENE) 2,152 5.3 -8.4°
Enters shadow 13:23:41 - 72° (ENE) 2,445 5.6 -8.6°
